STARLINK-33844, 63768

Orbit data source: Space-Track

STARLINK-33844, 63768 is a payload satellite owned by SpaceX/Seattle (US) in LEO that was launched on Tue, 29 Apr 2025 UTC via an FALCON 9 launch vehicle from the Air Force Eastern Test Range (AFETR). Payload-class satellites include a variety of spacecraft equipped with specific instruments for various scientific and technological missions. These include communications satellites like Starlink; space stations such as the ISS; scientific satellites like the Hubble; Earth observation satellites from companies like Planet Labs, Umbra, and HawkEye 360; GPS; miniature CubeSats for education and research; and military/defense satellites.

Loading next visibility...
Identifier
63768, 2025-089T
Orbit
LEO
Country
Flag of USUS
Related business
Manufacturer
SpaceX/Seattle
Mission
Operational Commercial Communications
Bus & Motor
STARLINK V2MO, Unknown motor
Mass
575 kg wet, ~530 kg dry
Launch date (UTC)
2025-04-29 (1 year ago)
Launch vehicle
FALCON 9
Launch site
Air Force Eastern Test Range (AFETR)
Object type
Payload
Rocket body
Debris
Shape & HBR
Box + 2 Pan, 17.7 m
Radar Cross Section
36.964 m², Large (>1 m²)

Expand to show TLE details & history
Last TLE update: 19 hours ago

TLE from 19 hours ago
0 STARLINK-33844
1 63768U 25089T   26171.10547659  .00011224  00000-0  41660-3 0  9998
2 63768  42.9996 186.5924 0001177 251.3828 108.6896 15.27594028 64620
Epoch: 2026-06-20T02:31Z
TLE epoch observation values (Epoch: 2026-06-20T02:31:53.177Z)
Latitude
-0°
Longitude
-119.70405°
Altitude
483.041 km
Speed
7.626 km/s
True Right ascension
12h 26m 22s
True Declination
0° 00' 00"
Sunlit
Object was in daylight at epoch
Visualization orbit readout
Latitude
Unknown
Longitude
Unknown
Altitude
Unknown
Speed
Unknown
Apparent Right ascension
Unknown
Apparent Declination
Unknown
Sunlit
N/A
Visualization observer readout
Local Sidereal Time
08:33:22
Azimuth
Unknown
Elevation
Unknown
Doppler factor
Unknown
Orbital elements
Apogee altitude
485.76 km
Perigee altitude
484.145 km
Semi-major axis
6,863.089 km
Eccentricity
0.00012
Inclination
42.9996°
RAAN
186.5924°
Arg. of periapsis
251.3828°
True anomaly
108.70238°
Mean anomaly
108.6896°
Eccentric anomaly
108.69599°
Mean motion
3.81737 °/min
Orbital period
94.31 mins
BSTAR
0.0004166
Loading maneuver chart data...
Computing Atmospheric mass density...
Loading historical data...
Loading historical data...
Loading historical data...
Loading historical data...
Loading historical data...
Loading historical data...
Loading historical data...

Documentation

Showing up to 5 results
|